Regional Weather Roundup
Issued by NWS

Home | Current Version | Previous Version | Graphics & Text | Print | Product List | Glossary On
Versions: 1 2 3 4 5 6 7 8 9 10 11 12 13 14 15 16 17 18 19 20 21 22 23 24 25 26 27 28 29 30 31 32 33 34 35 36 37 38 39 40 41 42 43 44 45 46 47 48 49 50
000
ASUS43 KFSD 241810
RWRSD

WEATHER ROUNDUP FOR SOUTH DAKOTA
NATIONAL WEATHER SERVICE SIOUX FALLS SD
100 PM CDT FRI OCT 24 2014

NOTE: "FAIR" INDICATES FEW OR NO CLOUDS BELOW 12,000 FEET WITH NO
SIGNIFICANT WEATHER AND/OR OBSTRUCTIONS TO VISIBILITY.


SDZ001>005-009-010-012>017-241900-
NORTHWEST AND NORTH CENTRAL SOUTH DAKOTA

CITY           SKY/WX    TMP DP  RH WIND       PRES   REMARKS
BUFFALO          N/A     63  35  35 NW20G28   29.96R
FAITH            N/A     69  37  30 N18       29.98R
MOBRIDGE       MOSUNNY   67  40  37 SW5       29.90S
$$

SDZ012>016-024>037-041>051-057-063-072>074-241900-
SOUTHWEST AND SOUTH CENTRAL SOUTH DAKOTA

CITY           SKY/WX    TMP DP  RH WIND       PRES   REMARKS
RAPID CTY ARPT MOSUNNY   71  34  25 N20G26    30.01S
PIERRE         SUNNY     68  39  34 W6        29.93S
CUSTER         MOSUNNY   67  28  23 SE6       30.11S
ELLSWORTH AFB  MOSUNNY   68  34  28 N17       30.01S
PHILIP         MOSUNNY   72  38  29 NW6       29.96S
PINE RIDGE     SUNNY     73  36  25 W10       30.03S
SPEARFISH      FAIR      64  34  32 NW8       30.08S
WINNER         FAIR      71  31  22 CALM      29.95F
$$

SDZ004>011-016>023-039-040-241900-
NORTHEAST SOUTH DAKOTA

CITY           SKY/WX    TMP DP  RH WIND       PRES   REMARKS
ABERDEEN       PTSUNNY   68  42  38 SW5       29.88F
WATERTOWN      MOSUNNY   68  40  35 W7        29.88F
SISSETON         N/A     74  39  28 NW10      29.84S
$$

SDZ017-020-022-023-036>040-048>070-241900-
SOUTHEAST SOUTH DAKOTA

CITY           SKY/WX    TMP DP  RH WIND       PRES   REMARKS
SIOUX FALLS    PTSUNNY   69  50  50 W3        29.90F
HURON          PTSUNNY   70  40  33 VRB3      29.90F
CHAMBERLAIN    MOSUNNY   68  35  29 NW3       29.94S
MITCHELL       PTSUNNY   67  41  38 W5        29.92S
YANKTON        PTSUNNY   64  45  48 W7        29.93S
$$

ABBREVIATIONS USED IN REMARKS
   TC - TEMPERATURE IN CELSIUS
  WCI - WIND CHILL INDEX
   HX - HEAT INDEX
  VSB - VISIBILITY




USA.gov is the U.S. government's official web portal to all federal, state and local government web resources and services.